CZ-6A DEB, 54499

Orbit data source: Space-Track

CZ-6A DEB, 54499 is space debris in SSO originally from a launch on Fri, 11 Nov 2022 UTC launched from the Taiyaun Space Center, China (TSC). Debris objects in space refer to the collection of defunct objects orbiting the Earth. Examples of debris include non-operational satellites, rocket bodies, and fragments generated from explosions, collisions, or faulty payload assembly.

Loading next visibility...
Identifier
54499, 2022-151JB
Orbit
SSO
Country
Flag of CNCN / PRC
Related business
Manufacturer
SAST
Mission
Spacecraft
Bus & Motor
Unknown
Mass
Unknown
Launch date (UTC)
2022-11-11 (3 years ago)
Launch vehicle
Unknown
Launch site
Taiyaun Space Center, China (TSC)
Object type
Payload
Rocket body
Debris
Shape & HBR
Unknown shape, 1.1 m
Radar Cross Section
Large (>1 m²)

Expand to show TLE details & history
Last TLE update: 16 hours ago

TLE from 16 hours ago
0 CZ-6A DEB
1 54499U 22151JB  25351.71995696  .00000302  00000-0  87944-4 0  9991
2 54499  98.6088  36.7784 0135170 121.5417 239.9057 14.46357153163177
Epoch: 2025-12-17T17:16Z
TLE epoch observation values (Epoch: 2025-12-17T17:16:44.281Z)
Latitude
-0.00005°
Longitude
51.00813°
Altitude
789.728 km
Speed
7.433 km/s
True Right ascension
02h 27m 06s
True Declination
0° 00' 00"
Sunlit
Object was in full shadow at epoch
Visualization orbit readout
Latitude
Unknown
Longitude
Unknown
Altitude
Unknown
Speed
Unknown
Apparent Right ascension
Unknown
Apparent Declination
Unknown
Sunlit
N/A
Visualization observer readout
Local Sidereal Time
08:17:40
Azimuth
Unknown
Elevation
Unknown
Doppler factor
Unknown
Orbital elements
Apogee altitude
830.833 km
Perigee altitude
638.545 km
Semi-major axis
7,112.826 km
Eccentricity
0.01352
Inclination
98.6088°
RAAN
36.7784°
Arg. of periapsis
121.5417°
True anomaly
238.57694°
Mean anomaly
239.9057°
Eccentric anomaly
239.24019°
Mean motion
3.61809 °/min
Orbital period
99.5 mins
BSTAR
0.000087944
Loading maneuver chart data...
Computing Atmospheric mass density...
Loading historical data...
Loading historical data...
Loading historical data...
Loading historical data...
Loading historical data...
Loading historical data...
Loading historical data...

Documentation

Showing up to 5 results
|